Regional Weather Roundup
Issued by NWS

Home | Current Version | Previous Version | Graphics & Text | Print | Product List | Glossary On
Versions: 1 2 3 4 5 6 7 8 9 10 11 12 13 14 15 16 17 18 19 20 21 22 23 24 25 26 27 28 29 30 31 32 33 34 35 36 37 38 39 40 41 42 43 44 45 46 47 48 49 50
000
ASUS43 KIND 250959
RWRIN

WEATHER ROUNDUP FOR INDIANA
NATIONAL WEATHER SERVICE INDIANAPOLIS IN
600 AM EDT SAT APR 25 2015

NOTE: "FAIR" INDICATES FEW OR NO CLOUDS BELOW 12,000 FEET WITH NO
SIGNIFICANT WEATHER AND/OR OBSTRUCTIONS TO VISIBILITY.

* - STATION DOES NOT REPORT WEATHER SUCH AS PRECIPITATION OR FOG.

+ - STATION NOT QUALITY CONTROLLED BY THE NATIONAL WEATHER SERVICE.
    USE DATA WITH CAUTION...ESPECIALLY DEWPOINT AND RELATIVE
    HUMIDITY OBSERVATIONS.

INZ001>003-010>013-019-020-251100-
NORTHWEST INDIANA

CITY           SKY/WX    TMP DP  RH WIND       PRES   REMARKS
GARY /AIRPORT/ CLOUDY    46  36  66 E12G23    29.80F
KNOX *+        MOCLDY    43  30  61 E12G17    29.82R
RENSSELAER +   LGT RAIN  45  43  93 NE9       29.79F

$$

LMZ046-743>745-251100-
SOUTHERN LAKE MICHIGAN

STATION/POSITION TIME  TEMP    WIND        PRES    WAVE
                       AIR SEA DIR/SP/G            HT
                 (UTC) (F)     (DEG/KT/KT) (MB)    (FT)
BURNS HARBOR     0900   46     100/ 11/ 15 1009.8F
MICHIGAN CITY    0900   45      70/ 12/ 16   N/A
5NW MICH CITY    0900   45 44  100/ 14/ 17   N/A     2

$$

INZ004-005-014>016-021>024-251100-
NORTH CENTRAL INDIANA

CITY           SKY/WX    TMP DP  RH WIND       PRES   REMARKS
GOSHEN         MOCLDY    42  37  82 E18       29.83F
SOUTH BEND     CLOUDY    44  38  79 E10       29.85S
WARSAW +       MOCLDY    41  36  81 E16G25    29.81F

$$

INZ006>009-017-018-025>027-251100-
NORTHEAST INDIANA

CITY           SKY/WX    TMP DP  RH WIND       PRES   REMARKS
ANGOLA *+      CLOUDY    39  36  87 E12       29.87S
FORT WAYNE     CLOUDY    43  34  70 E24G31    29.84F

$$

INZ028-029-035-036-043>045-051>053-251100-
WEST CENTRAL INDIANA

CITY           SKY/WX    TMP DP  RH WIND       PRES   REMARKS
CRAWFORDSVL +  LGT SNOW  46  40  81 E8        29.76S
GREENCASTLE +  CLOUDY    46  41  81 E6        29.76R
LAFAYETTE      RAIN      48  43  82 E7        29.76F
TERRE HAUTE    CLOUDY    50  45  83 E7        29.73F

$$

INZ030>032-037>040-046>048-054>057-064-065-251100-
CENTRAL INDIANA

CITY           SKY/WX    TMP DP  RH WIND       PRES   REMARKS
FRANKFORT +    LGT RAIN  51  40  65 E10       29.78F
GREENWOOD *+   CLOUDY    48  43  81 E9        29.78F
INDIANAPOLIS   CLOUDY    49  44  83 E14       29.75F
-EAGLE CREEK   CLOUDY    49  44  83 E9        29.77F
KOKOMO *+      CLOUDY    48  36  61 E12       29.78F
MT COMFORT *+  CLOUDY    48  36  61 SE9G16    29.79F
SHELBYVILLE    CLOUDY    50  44  80 E12       29.78F

$$

INZ033-034-041-042-049-050-058-059-251100-
EAST CENTRAL INDIANA

CITY           SKY/WX    TMP DP  RH WIND       PRES   REMARKS
MUNCIE         CLOUDY    50  36  58 SE10      29.80F

$$

INZ060-061-067>069-081>083-085>088-251100-
SOUTHWEST INDIANA

CITY           SKY/WX    TMP DP  RH WIND       PRES   REMARKS
EVANSVILLE     LGT RAIN  56  45  66 SE3       29.71F
HUNTINGBURG *+ CLOUDY    52  45  76 E7        29.72F

$$

INZ062-063-066-070>080-084-089>092-251100-
SOUTH CENTRAL AND SOUTHEAST INDIANA

CITY           SKY/WX    TMP DP  RH WIND       PRES   REMARKS
BLOOMINGTON    CLOUDY    51  45  79 SE10      29.74F
MADISON *+     CLOUDY    50  39  66 E8        29.81F
SEYMOUR +      CLOUDY    52  45  76 E6        29.78F

$$



USA.gov is the U.S. government's official web portal to all federal, state and local government web resources and services.